Location: Diebersbach
(48.5163°N, 8.0558°E)
Time: 13:48:12
(UTC+00:00)

Cosmos 2369 Rocket - Pass Details

Date: 20 June 2021
Orbit: 827 x 854 km, 71.0° (Epoch: 29 July)

Event Time Altitude Azimuth Distance (km) Brightness Sun altitude
Rises 00:27:37 0° 329° (NNW) 3,434 6.1 -16.9°
Reaches altitude 10° 00:30:07 10° 325° (NW) 2,494 5.2 -16.8°
Maximum altitude 00:35:42 56° 249° (WSW) 1,006 2.4 -16.5°
Enters shadow 00:38:56 25° 180° (S) 1,659 3.2 -16.4°
